CEB857 RPLL-RPMZ

Flight info

Callsign CEB857
Flight time 1h 15m
Altitude 37000
Route VERDE2V VERDE A461 SAJ/N0442F390 A461 TINDO TINDO1W
Aircraft A20N/M-SDE2E3FGHIRWXY/LB1

Departure

Time 2026-04-26 15:35
Airport Ninoy Aquino International Airport (RPLL)

Arrival

Time 2026-04-26 16:51
Airport Zamboanga International Airport (RPMZ)
Time Latitude Longitude Altitude Speed Heading
2026-04-26 15:03 14.52359 121.00809 82 ft 0 kts 45°
2026-04-26 15:10 14.52358 121.00809 82 ft 0 kts 45°
2026-04-26 15:12 14.52356 121.00806 82 ft 2 kts 45°
2026-04-26 15:12 14.52345 121.00795 82 ft 2 kts 44°
2026-04-26 15:13 14.52334 121.00784 82 ft 2 kts 45°
2026-04-26 15:13 14.52323 121.00773 82 ft 2 kts 45°
2026-04-26 15:13 14.52315 121.00761 82 ft 2 kts 85°
2026-04-26 15:13 14.52317 121.00746 82 ft 2 kts 73°
2026-04-26 15:14 14.52308 121.00734 82 ft 2 kts 29°
2026-04-26 15:14 14.52293 121.00730 82 ft 2 kts 347°
2026-04-26 15:14 14.52280 121.00738 82 ft 2 kts 308°
2026-04-26 15:14 14.52273 121.00746 82 ft 0 kts 316°
2026-04-26 15:15 14.52272 121.00748 82 ft 0 kts 317°
2026-04-26 15:17 14.52273 121.00746 82 ft 0 kts 317°
2026-04-26 15:17 14.52279 121.00741 82 ft 2 kts 314°
2026-04-26 15:17 14.52305 121.00713 82 ft 5 kts 314°
2026-04-26 15:17 14.52337 121.00679 82 ft 7 kts 314°
2026-04-26 15:18 14.52378 121.00636 82 ft 8 kts 315°
2026-04-26 15:18 14.52426 121.00588 82 ft 10 kts 314°
2026-04-26 15:18 14.52449 121.00563 82 ft 0 kts 315°
2026-04-26 15:18 14.52451 121.00562 82 ft 1 kts 315°
2026-04-26 15:19 14.52460 121.00552 82 ft 2 kts 315°
2026-04-26 15:19 14.52464 121.00548 82 ft 1 kts 315°
2026-04-26 15:19 14.52488 121.00517 82 ft 7 kts 289°
2026-04-26 15:19 14.52466 121.00465 82 ft 6 kts 225°
2026-04-26 15:20 14.52462 121.00460 82 ft 0 kts 226°
2026-04-26 15:24 14.52454 121.00452 82 ft 3 kts 225°
2026-04-26 15:24 14.52430 121.00427 82 ft 6 kts 225°
2026-04-26 15:24 14.52383 121.00403 82 ft 8 kts 179°
2026-04-26 15:24 14.52341 121.00429 82 ft 0 kts 135°
2026-04-26 15:25 14.52338 121.00433 82 ft 1 kts 137°
2026-04-26 15:25 14.52331 121.00439 82 ft 2 kts 135°
2026-04-26 15:25 14.52330 121.00440 82 ft 0 kts 135°
2026-04-26 15:35 14.52232 121.00541 82 ft 53 kts 135°
2026-04-26 15:35 14.51792 121.00996 82 ft 121 kts 136°
2026-04-26 15:35 14.51102 121.01711 311 ft 147 kts 133°
2026-04-26 15:35 14.50392 121.02445 872 ft 145 kts 131°
2026-04-26 15:36 14.49677 121.03187 1436 ft 148 kts 140°
2026-04-26 15:36 14.48713 121.03524 1951 ft 153 kts 172°
2026-04-26 15:36 14.47585 121.03509 2238 ft 170 kts 179°
2026-04-26 15:36 14.46344 121.03436 2555 ft 185 kts 179°
2026-04-26 15:37 14.45000 121.03375 2894 ft 202 kts 179°
2026-04-26 15:37 14.43517 121.03333 3181 ft 224 kts 178°
2026-04-26 15:37 14.41879 121.03308 3612 ft 242 kts 178°
2026-04-26 15:37 14.40130 121.03292 4064 ft 260 kts 178°
2026-04-26 15:38 14.38259 121.03281 4596 ft 275 kts 178°
2026-04-26 15:38 14.36306 121.03271 5387 ft 280 kts 178°
2026-04-26 15:38 14.34372 121.03263 6259 ft 282 kts 178°
2026-04-26 15:38 14.32388 121.03257 7129 ft 285 kts 179°
2026-04-26 15:39 14.30405 121.03254 7969 ft 289 kts 179°
2026-04-26 15:39 14.28365 121.03251 8826 ft 293 kts 179°
2026-04-26 15:39 14.26335 121.03249 9671 ft 296 kts 180°
2026-04-26 15:39 14.24956 121.03247 10245 ft 298 kts 180°
2026-04-26 15:40 14.22101 121.03245 11001 ft 315 kts 180°
2026-04-26 15:40 14.19899 121.03242 11662 ft 321 kts 180°
2026-04-26 15:40 14.17633 121.03240 12421 ft 324 kts 181°
2026-04-26 15:40 14.15394 121.03238 13135 ft 327 kts 181°
2026-04-26 15:41 14.13082 121.03236 13828 ft 331 kts 181°
2026-04-26 15:41 14.10754 121.03233 14503 ft 335 kts 181°
2026-04-26 15:41 14.08393 121.03230 15146 ft 340 kts 181°
2026-04-26 15:41 14.05999 121.03228 15794 ft 343 kts 181°
2026-04-26 15:42 14.03601 121.03227 16411 ft 347 kts 181°
2026-04-26 15:42 14.01158 121.03226 17014 ft 351 kts 181°
2026-04-26 15:42 13.98705 121.03224 17628 ft 355 kts 181°
2026-04-26 15:42 13.96209 121.03221 18266 ft 358 kts 181°
2026-04-26 15:43 13.93701 121.03220 18872 ft 359 kts 182°
2026-04-26 15:43 13.91218 121.03217 19500 ft 361 kts 182°
2026-04-26 15:43 13.86143 121.03213 20738 ft 365 kts 181°
2026-04-26 15:44 13.83572 121.03211 21341 ft 368 kts 181°
2026-04-26 15:44 13.78411 121.03209 22547 ft 372 kts 182°
2026-04-26 15:44 13.75787 121.03207 23115 ft 375 kts 181°
2026-04-26 15:45 13.70497 121.03205 24169 ft 383 kts 182°
2026-04-26 15:45 13.67800 121.03203 24678 ft 386 kts 182°
2026-04-26 15:46 13.62353 121.03196 25662 ft 393 kts 182°
2026-04-26 15:46 13.59582 121.03194 26141 ft 397 kts 182°
2026-04-26 15:46 13.56786 121.03190 26610 ft 400 kts 182°
2026-04-26 15:46 13.54953 121.03188 26912 ft 403 kts 182°
2026-04-26 15:47 13.51165 121.03185 27517 ft 407 kts 182°
2026-04-26 15:47 13.45460 121.03226 28373 ft 413 kts 182°
2026-04-26 15:47 13.42565 121.03260 28793 ft 416 kts 182°
2026-04-26 15:48 13.39644 121.03292 29225 ft 419 kts 182°
2026-04-26 15:48 13.36704 121.03322 29674 ft 420 kts 182°
2026-04-26 15:48 13.33784 121.03351 30128 ft 421 kts 182°
2026-04-26 15:48 13.30824 121.03379 30582 ft 422 kts 182°
2026-04-26 15:49 13.27894 121.03407 31020 ft 422 kts 181°
2026-04-26 15:49 13.24957 121.03436 31431 ft 423 kts 182°
2026-04-26 15:49 13.21997 121.03468 31843 ft 424 kts 181°
2026-04-26 15:49 13.19011 121.03500 32227 ft 425 kts 181°
2026-04-26 15:50 13.16002 121.03532 32696 ft 424 kts 181°
2026-04-26 15:50 13.13073 121.03562 33282 ft 420 kts 181°
2026-04-26 15:50 13.10117 121.03593 33825 ft 418 kts 181°
2026-04-26 15:50 13.07198 121.03622 34285 ft 417 kts 181°
2026-04-26 15:51 13.04316 121.03651 34727 ft 416 kts 181°
2026-04-26 15:51 13.01440 121.03679 35155 ft 415 kts 181°
2026-04-26 15:51 12.98532 121.03709 35541 ft 414 kts 181°
2026-04-26 15:51 12.95629 121.03736 35854 ft 416 kts 181°
2026-04-26 15:52 12.92712 121.03764 36111 ft 418 kts 181°
2026-04-26 15:52 12.89814 121.03793 36368 ft 419 kts 181°
2026-04-26 15:52 12.86833 121.03822 36636 ft 421 kts 181°
2026-04-26 15:52 12.84892 121.03841 36793 ft 422 kts 181°
2026-04-26 15:53 12.80942 121.03881 37009 ft 425 kts 181°
2026-04-26 15:53 12.74994 121.03941 37004 ft 426 kts 181°
2026-04-26 15:54 12.69016 121.03999 36997 ft 433 kts 181°
2026-04-26 15:54 12.62881 121.04058 36971 ft 445 kts 181°
2026-04-26 15:55 12.56599 121.04118 36956 ft 453 kts 181°
2026-04-26 15:55 12.50268 121.04179 36936 ft 453 kts 181°
2026-04-26 15:56 12.43929 121.04240 36915 ft 454 kts 181°
2026-04-26 15:56 12.37588 121.04414 36914 ft 454 kts 177°
2026-04-26 15:57 12.31300 121.05212 36904 ft 456 kts 171°
2026-04-26 15:57 12.25009 121.06400 36905 ft 456 kts 171°
2026-04-26 15:58 12.18752 121.07589 36901 ft 456 kts 171°
2026-04-26 15:58 12.12483 121.08777 36898 ft 456 kts 171°
2026-04-26 15:59 12.06236 121.09958 36898 ft 456 kts 171°
2026-04-26 15:59 11.99945 121.11146 36900 ft 456 kts 171°
2026-04-26 16:00 11.93711 121.12325 36898 ft 456 kts 171°
2026-04-26 16:00 11.87401 121.13515 36898 ft 456 kts 171°
2026-04-26 16:01 11.81117 121.14696 36898 ft 456 kts 171°
2026-04-26 16:01 11.74845 121.15878 36898 ft 456 kts 171°
2026-04-26 16:02 11.68590 121.17055 36897 ft 456 kts 171°
2026-04-26 16:02 11.62330 121.18234 36897 ft 456 kts 171°
2026-04-26 16:03 11.56053 121.19416 36893 ft 456 kts 171°
2026-04-26 16:03 11.49798 121.20594 36890 ft 456 kts 171°
2026-04-26 16:04 11.43526 121.21775 36886 ft 456 kts 171°
2026-04-26 16:04 11.37282 121.22949 36885 ft 456 kts 171°
2026-04-26 16:05 11.31010 121.24129 36879 ft 457 kts 171°
2026-04-26 16:05 11.24739 121.25307 36878 ft 457 kts 171°
2026-04-26 16:06 11.18448 121.26489 36879 ft 457 kts 171°
2026-04-26 16:06 11.12185 121.27666 36877 ft 457 kts 171°
2026-04-26 16:07 11.05923 121.28841 36878 ft 456 kts 171°
2026-04-26 16:07 10.99615 121.30024 36876 ft 457 kts 171°
2026-04-26 16:08 10.93350 121.31221 36874 ft 457 kts 170°
2026-04-26 16:08 10.87079 121.32423 36872 ft 457 kts 170°
2026-04-26 16:09 10.80795 121.33621 36871 ft 458 kts 170°
2026-04-26 16:09 10.74550 121.34813 36869 ft 458 kts 170°
2026-04-26 16:10 10.68252 121.36015 36869 ft 458 kts 170°
2026-04-26 16:10 10.61964 121.37216 36869 ft 457 kts 170°
2026-04-26 16:11 10.55677 121.38418 36869 ft 457 kts 170°
2026-04-26 16:11 10.49372 121.39616 36869 ft 458 kts 170°
2026-04-26 16:12 10.43092 121.40785 36864 ft 458 kts 170°
2026-04-26 16:12 10.33640 121.42545 36859 ft 458 kts 170°
2026-04-26 16:13 10.27354 121.43716 36856 ft 458 kts 170°
2026-04-26 16:13 10.21044 121.44892 36850 ft 459 kts 170°
2026-04-26 16:14 10.14742 121.46067 36853 ft 458 kts 170°
2026-04-26 16:15 10.05266 121.47831 36851 ft 458 kts 169°
2026-04-26 16:15 9.98976 121.49002 36850 ft 458 kts 169°
2026-04-26 16:16 9.89520 121.50761 36849 ft 459 kts 169°
2026-04-26 16:16 9.83217 121.51928 36851 ft 459 kts 169°
2026-04-26 16:17 9.76944 121.53092 36850 ft 459 kts 169°
2026-04-26 16:17 9.70610 121.54269 36851 ft 458 kts 169°
2026-04-26 16:18 9.61190 121.56014 36850 ft 458 kts 169°
2026-04-26 16:19 9.51717 121.57770 36853 ft 459 kts 169°
2026-04-26 16:20 9.42273 121.59521 36852 ft 459 kts 169°
2026-04-26 16:20 9.32781 121.61279 36854 ft 459 kts 169°
2026-04-26 16:21 9.26506 121.62442 36854 ft 459 kts 169°
2026-04-26 16:21 9.20162 121.63616 36862 ft 459 kts 169°
2026-04-26 16:22 9.13876 121.64780 36872 ft 459 kts 169°
2026-04-26 16:22 9.07550 121.65970 36872 ft 459 kts 169°
2026-04-26 16:23 9.01184 121.67173 36866 ft 459 kts 169°
2026-04-26 16:23 8.94878 121.68349 36862 ft 459 kts 169°
2026-04-26 16:24 8.88547 121.69522 36853 ft 459 kts 169°
2026-04-26 16:24 8.82574 121.70622 36856 ft 459 kts 169°
2026-04-26 16:25 8.76264 121.71783 36856 ft 458 kts 169°
2026-04-26 16:25 8.70019 121.72935 36610 ft 449 kts 169°
2026-04-26 16:26 8.66939 121.73502 35912 ft 447 kts 169°
2026-04-26 16:26 8.64929 121.73872 35410 ft 446 kts 169°
2026-04-26 16:26 8.60838 121.74624 34433 ft 443 kts 168°
2026-04-26 16:26 8.57823 121.75179 33628 ft 443 kts 168°
2026-04-26 16:27 8.54776 121.75737 32739 ft 444 kts 168°
2026-04-26 16:27 8.51726 121.76293 31902 ft 446 kts 168°
2026-04-26 16:27 8.48639 121.76875 31000 ft 448 kts 168°
2026-04-26 16:27 8.45600 121.77449 30343 ft 445 kts 168°
2026-04-26 16:28 8.42557 121.78018 29685 ft 443 kts 168°
2026-04-26 16:28 8.39525 121.78580 29061 ft 441 kts 168°
2026-04-26 16:28 8.36504 121.79140 28460 ft 438 kts 168°
2026-04-26 16:28 8.33514 121.79689 27911 ft 435 kts 168°
2026-04-26 16:29 8.30506 121.80241 27410 ft 430 kts 168°
2026-04-26 16:29 8.27571 121.80780 26943 ft 426 kts 168°
2026-04-26 16:29 8.24669 121.81313 26503 ft 420 kts 168°
2026-04-26 16:29 8.21805 121.81840 26073 ft 415 kts 168°
2026-04-26 16:30 8.18957 121.82364 25652 ft 410 kts 168°
2026-04-26 16:30 8.16135 121.82883 25229 ft 405 kts 167°
2026-04-26 16:30 8.13386 121.83386 24817 ft 401 kts 167°
2026-04-26 16:30 8.10657 121.83887 24395 ft 397 kts 167°
2026-04-26 16:31 8.07926 121.84388 23971 ft 393 kts 167°
2026-04-26 16:31 8.05263 121.84879 23549 ft 389 kts 167°
2026-04-26 16:31 8.02575 121.85371 23126 ft 386 kts 167°
2026-04-26 16:31 7.99932 121.85857 22705 ft 383 kts 166°
2026-04-26 16:32 7.97332 121.86337 22283 ft 380 kts 166°
2026-04-26 16:32 7.95574 121.86659 22003 ft 378 kts 166°
2026-04-26 16:32 7.92162 121.87288 21456 ft 374 kts 166°
2026-04-26 16:32 7.89575 121.87765 21032 ft 371 kts 167°
2026-04-26 16:33 7.87015 121.88232 20622 ft 368 kts 167°
2026-04-26 16:33 7.84517 121.88688 20209 ft 366 kts 167°
2026-04-26 16:33 7.81994 121.89148 19793 ft 363 kts 167°
2026-04-26 16:33 7.79518 121.89602 19378 ft 360 kts 167°
2026-04-26 16:34 7.77026 121.90060 18955 ft 358 kts 167°
2026-04-26 16:34 7.74597 121.90505 18536 ft 356 kts 167°
2026-04-26 16:34 7.72162 121.90952 18105 ft 355 kts 167°
2026-04-26 16:34 7.69733 121.91397 17680 ft 353 kts 167°
2026-04-26 16:35 7.67288 121.91846 17246 ft 351 kts 167°
2026-04-26 16:35 7.64900 121.92282 16829 ft 349 kts 167°
2026-04-26 16:35 7.62500 121.92721 16433 ft 346 kts 167°
2026-04-26 16:35 7.60114 121.93158 16038 ft 344 kts 167°
2026-04-26 16:36 7.57770 121.93586 15850 ft 339 kts 167°
2026-04-26 16:36 7.55441 121.94012 15797 ft 338 kts 167°
2026-04-26 16:36 7.53115 121.94441 15244 ft 342 kts 167°
2026-04-26 16:36 7.50738 121.94877 14531 ft 349 kts 167°
2026-04-26 16:37 7.48361 121.95312 14079 ft 347 kts 167°
2026-04-26 16:37 7.45959 121.95750 13640 ft 344 kts 167°
2026-04-26 16:37 7.43626 121.96177 13230 ft 341 kts 167°
2026-04-26 16:37 7.41291 121.96602 12818 ft 338 kts 167°
2026-04-26 16:38 7.38982 121.97025 12413 ft 335 kts 167°
2026-04-26 16:38 7.36674 121.97447 12014 ft 332 kts 167°
2026-04-26 16:38 7.34449 121.97989 11601 ft 327 kts 156°
2026-04-26 16:38 7.32478 121.99105 11201 ft 321 kts 139°
2026-04-26 16:39 7.30835 122.00592 10820 ft 317 kts 134°
2026-04-26 16:39 7.29253 122.02125 10433 ft 315 kts 133°
2026-04-26 16:39 7.27664 122.03673 10044 ft 312 kts 133°
2026-04-26 16:39 7.26124 122.05160 9923 ft 299 kts 134°
2026-04-26 16:40 7.24639 122.06588 9707 ft 291 kts 134°
2026-04-26 16:40 7.23194 122.07973 9367 ft 288 kts 134°
2026-04-26 16:40 7.21736 122.09365 9032 ft 286 kts 134°
2026-04-26 16:40 7.20294 122.10738 8701 ft 283 kts 133°
2026-04-26 16:41 7.18874 122.12093 8370 ft 281 kts 133°
2026-04-26 16:41 7.17444 122.13455 8032 ft 278 kts 133°
2026-04-26 16:41 7.16038 122.14797 7708 ft 276 kts 133°
2026-04-26 16:41 7.14723 122.16052 7403 ft 274 kts 133°
2026-04-26 16:42 7.13358 122.17351 7085 ft 271 kts 133°
2026-04-26 16:42 7.11973 122.18671 6761 ft 269 kts 133°
2026-04-26 16:42 7.10623 122.19960 6456 ft 266 kts 133°
2026-04-26 16:42 7.09278 122.21244 6146 ft 264 kts 133°
2026-04-26 16:43 7.07963 122.22498 5845 ft 262 kts 133°
2026-04-26 16:43 7.06629 122.23770 5551 ft 260 kts 133°
2026-04-26 16:43 7.05324 122.25015 5246 ft 259 kts 134°
2026-04-26 16:43 7.04012 122.26263 4948 ft 258 kts 133°
2026-04-26 16:44 7.02707 122.27508 4645 ft 256 kts 134°
2026-04-26 16:44 7.01412 122.28741 4351 ft 254 kts 134°
2026-04-26 16:44 7.00147 122.29947 4131 ft 248 kts 134°
2026-04-26 16:44 6.98760 122.30944 4040 ft 240 kts 159°
2026-04-26 16:45 6.97144 122.31073 3873 ft 236 kts 192°
2026-04-26 16:45 6.95614 122.30478 3630 ft 234 kts 204°
2026-04-26 16:45 6.94136 122.29771 3387 ft 231 kts 205°
2026-04-26 16:45 6.92671 122.29082 3143 ft 228 kts 205°
2026-04-26 16:46 6.91375 122.28217 2854 ft 225 kts 233°
2026-04-26 16:46 6.90782 122.26815 2746 ft 210 kts 267°
2026-04-26 16:46 6.90838 122.25399 2743 ft 201 kts 277°
2026-04-26 16:46 6.90978 122.23987 2740 ft 201 kts 277°
2026-04-26 16:47 6.91101 122.22627 2755 ft 189 kts 276°
2026-04-26 16:47 6.91205 122.21326 2601 ft 179 kts 276°
2026-04-26 16:47 6.91293 122.20111 2472 ft 168 kts 276°
2026-04-26 16:47 6.91373 122.18965 2267 ft 162 kts 276°
2026-04-26 16:48 6.91450 122.17889 2062 ft 149 kts 275°
2026-04-26 16:48 6.91522 122.16856 1872 ft 147 kts 275°
2026-04-26 16:48 6.91593 122.15833 1691 ft 146 kts 275°
2026-04-26 16:48 6.91664 122.14816 1509 ft 145 kts 274°
2026-04-26 16:49 6.91733 122.13802 1316 ft 145 kts 274°
2026-04-26 16:49 6.91798 122.12844 1134 ft 145 kts 274°
2026-04-26 16:49 6.91866 122.11829 946 ft 144 kts 274°
2026-04-26 16:49 6.91932 122.10818 753 ft 143 kts 275°
2026-04-26 16:50 6.91996 122.09825 577 ft 143 kts 274°
2026-04-26 16:50 6.92068 122.08826 418 ft 142 kts 275°
2026-04-26 16:50 6.92124 122.07828 228 ft 141 kts 274°
2026-04-26 16:50 6.92185 122.06857 71 ft 137 kts 274°
2026-04-26 16:51 6.92238 122.06016 67 ft 96 kts 275°
2026-04-26 16:51 6.92272 122.05518 68 ft 50 kts 274°
2026-04-26 16:51 6.92285 122.05313 68 ft 12 kts 273°
2026-04-26 16:51 6.92274 122.05252 68 ft 4 kts 260°
2026-04-26 16:52 6.92286 122.05256 68 ft 4 kts 80°
2026-04-26 16:52 6.92287 122.05283 68 ft 7 kts 91°
2026-04-26 16:52 6.92282 122.05365 68 ft 10 kts 94°
2026-04-26 16:52 6.92277 122.05441 68 ft 11 kts 94°
2026-04-26 16:53 6.92271 122.05532 68 ft 13 kts 94°
2026-04-26 16:53 6.92264 122.05632 68 ft 14 kts 94°
2026-04-26 16:53 6.92257 122.05740 67 ft 15 kts 94°
2026-04-26 16:53 6.92248 122.05853 67 ft 16 kts 93°
2026-04-26 16:54 6.92241 122.05952 67 ft 11 kts 105°
2026-04-26 16:54 6.92187 122.06013 67 ft 12 kts 142°
2026-04-26 16:54 6.92144 122.06071 67 ft 10 kts 98°
2026-04-26 16:54 6.92141 122.06123 67 ft 0 kts 94°
2026-04-26 16:55 6.92138 122.06136 67 ft 3 kts 112°
2026-04-26 16:55 6.92108 122.06161 67 ft 7 kts 150°
2026-04-26 16:55 6.92076 122.06175 66 ft 3 kts 156°
2026-04-26 16:55 6.92054 122.06184 66 ft 0 kts 156°
2026-04-26 16:56 6.92052 122.06186 66 ft 0 kts 156°